"Period start","avg(HW err(1)/warn(2) (#))","avg(Visibility (m))","avg(Weather code (#))","avg(Precip intensity (mm/h))","min(HW err(1)/warn(2) (#))","max(HW err(1)/warn(2) (#))","std(HW err(1)/warn(2) (#))","med(HW err(1)/warn(2) (#))","min(Visibility (m))","max(Visibility (m))","std(Visibility (m))","med(Visibility (m))","min(Weather code (#))","max(Weather code (#))","std(Weather code (#))","med(Weather code (#))","min(Precip intensity (mm/h))","max(Precip intensity (mm/h))","std(Precip intensity (mm/h))","med(Precip intensity (mm/h))"
2016-09-10 00:00:00,2,39006,0,0.00,2,2,0,2,29496,44924,5162,40770,0,0,0,0,0.00,0.00,0.00,0.00
2016-09-10 00:10:00,2,42660,0,0.00,2,2,0,2,31844,50000,6207,43353,0,0,0,0,0.00,0.00,0.00,0.00
2016-09-10 00:20:00,2,34936,0,0.00,2,2,0,2,21853,44443,6470,36008,0,0,0,0,0.00,0.00,0.00,0.00
2016-09-10 00:30:00,2,39109,0,0.00,2,2,0,2,19911,50000,9631,40912,0,0,0,0,0.00,0.00,0.00,0.00
2016-09-10 00:40:00,2,48418,0,0.00,0,2,1,2,43685,50000,2144,50000,0,0,0,0,0.00,0.00,0.00,0.00
2016-09-10 00:50:00,2,45675,0,0.00,0,2,1,2,33147,50000,6190,49206,0,0,0,0,0.00,0.00,0.00,0.00
2016-09-10 01:00:00,2,47043,0,0.00,2,2,0,2,39196,50000,3683,48823,0,0,0,0,0.00,0.00,0.00,0.00
2016-09-10 01:10:00,2,47159,0,0.00,0,2,1,2,39746,50000,3861,49317,0,0,0,0,0.00,0.00,0.00,0.00
2016-09-10 01:20:00,2,49069,0,0.00,2,2,0,2,45826,50000,1568,50000,0,0,0,0,0.00,0.00,0.00,0.00
2016-09-10 01:30:00,2,43818,0,0.00,0,2,1,2,38090,50000,3940,42782,0,0,0,0,0.00,0.00,0.00,0.00
2016-09-10 01:40:00,0,47663,0,0.00,0,0,0,0,41857,50000,2908,49171,0,0,0,0,0.00,0.00,0.00,0.00
2016-09-10 01:50:00,0,49240,0,0.00,0,0,0,0,42399,50000,2280,50000,0,0,0,0,0.00,0.00,0.00,0.00
2016-09-10 02:00:00,0,46260,0,0.00,0,0,0,0,37758,50000,4565,48385,0,0,0,0,0.00,0.00,0.00,0.00
2016-09-10 02:10:00,0,49634,0,0.00,0,0,0,0,48380,50000,637,50000,0,0,0,0,0.00,0.00,0.00,0.00
2016-09-10 02:20:00,0,44475,0,0.00,0,0,0,0,34833,50000,6541,49110,0,0,0,0,0.00,0.00,0.00,0.00
2016-09-10 02:30:00,0,47095,0,0.00,0,0,0,0,39421,50000,3882,49760,0,0,0,0,0.00,0.00,0.00,0.00
2016-09-10 02:40:00,0,49400,0,0.00,0,0,0,0,45605,50000,1287,50000,0,0,0,0,0.00,0.00,0.00,0.00
2016-09-10 02:50:00,0,48604,0,0.00,0,0,0,0,43815,50000,1896,49588,0,0,0,0,0.00,0.00,0.00,0.00
2016-09-10 03:00:00,0,47702,0,0.00,0,0,0,0,44724,50000,2042,48282,0,0,0,0,0.00,0.00,0.00,0.00
2016-09-10 03:10:00,0,47368,0,0.00,0,0,0,0,43264,50000,2493,48177,0,0,0,0,0.00,0.00,0.00,0.00
2016-09-10 03:20:00,0,49795,0,0.00,0,0,0,0,49053,50000,325,50000,0,0,0,0,0.00,0.00,0.00,0.00
2016-09-10 03:30:00,0,47324,0,0.00,0,0,0,0,39473,50000,3556,49533,0,0,0,0,0.00,0.00,0.00,0.00
2016-09-10 03:40:00,0,49938,0,0.00,0,0,0,0,49594,50000,131,50000,0,0,0,0,0.00,0.00,0.00,0.00
2016-09-10 03:50:00,1,48244,0,0.00,0,2,1,0,42861,50000,2531,50000,0,0,0,0,0.00,0.00,0.00,0.00
2016-09-10 04:00:00,2,45764,0,0.00,0,2,1,2,36231,50000,4399,46182,0,0,0,0,0.00,0.00,0.00,0.00
2016-09-10 04:10:00,1,47871,0,0.00,0,2,1,0,41791,50000,2541,48612,0,0,0,0,0.00,0.00,0.00,0.00
2016-09-10 04:20:00,0,48619,0,0.00,0,2,1,0,46203,50000,1400,48958,0,0,0,0,0.00,0.00,0.00,0.00
2016-09-10 04:30:00,2,49070,0,0.00,2,2,0,2,46253,50000,1277,49840,0,0,0,0,0.00,0.00,0.00,0.00
2016-09-10 04:40:00,1,42589,0,0.00,0,2,1,2,30647,48055,5648,44923,0,0,0,0,0.00,0.00,0.00,0.00
2016-09-10 04:50:00,0,44212,0,0.00,0,0,0,0,33135,50000,5873,46184,0,0,0,0,0.00,0.00,0.00,0.00
2016-09-10 05:00:00,0,49270,0,0.00,0,0,0,0,44396,50000,1670,50000,0,0,0,0,0.00,0.00,0.00,0.00
2016-09-10 05:10:00,0,46086,0,0.00,0,0,0,0,35804,50000,4136,46742,0,0,0,0,0.00,0.00,0.00,0.00
2016-09-10 05:20:00,0,49823,0,0.00,0,0,0,0,48361,50000,489,50000,0,0,0,0,0.00,0.00,0.00,0.00
2016-09-10 05:30:00,0,48645,0,0.00,0,0,0,0,44634,50000,1804,49808,0,0,0,0,0.00,0.00,0.00,0.00
2016-09-10 05:40:00,0,48193,0,0.00,0,0,0,0,43936,50000,2292,49742,0,0,0,0,0.00,0.00,0.00,0.00
2016-09-10 05:50:00,0,48174,0,0.00,0,0,0,0,45581,50000,1890,48714,0,0,0,0,0.00,0.00,0.00,0.00
2016-09-10 06:00:00,0,50000,0,0.00,0,0,0,0,50000,50000,0,50000,0,0,0,0,0.00,0.00,0.00,0.00
2016-09-10 06:10:00,0,48112,0,0.00,0,0,0,0,43544,50000,2334,49700,0,0,0,0,0.00,0.00,0.00,0.00
2016-09-10 06:20:00,0,48816,0,0.00,0,0,0,0,45593,50000,1596,49700,0,0,0,0,0.00,0.00,0.00,0.00
2016-09-10 06:30:00,0,48392,0,0.00,0,2,1,0,44619,50000,1888,49184,0,0,0,0,0.00,0.00,0.00,0.00
2016-09-10 06:40:00,1,48427,0,0.00,0,2,1,2,43065,50000,2357,50000,0,0,0,0,0.00,0.00,0.00,0.00
2016-09-10 06:50:00,2,48189,0,0.00,0,2,1,2,44868,50000,1959,49000,0,0,0,0,0.00,0.00,0.00,0.00
2016-09-10 07:00:00,2,47629,0,0.00,2,2,0,2,42747,50000,2420,47718,0,0,0,0,0.00,0.00,0.00,0.00
2016-09-10 07:10:00,2,46763,0,0.00,0,2,1,2,42489,50000,2887,46938,0,0,0,0,0.00,0.00,0.00,0.00
2016-09-10 07:20:00,1,48599,0,0.00,0,2,1,0,46197,50000,1432,49026,0,0,0,0,0.00,0.00,0.00,0.00
2016-09-10 07:30:00,0,44902,0,0.00,0,0,0,0,34778,50000,4451,45804,0,0,0,0,0.00,0.00,0.00,0.00
2016-09-10 07:40:00,0,49502,0,0.00,0,0,0,0,47656,50000,837,50000,0,0,0,0,0.00,0.00,0.00,0.00
2016-09-10 07:50:00,0,49640,0,0.00,0,0,0,0,46398,50000,1081,50000,0,0,0,0,0.00,0.00,0.00,0.00
2016-09-10 08:00:00,0,48670,0,0.00,0,0,0,0,44952,50000,1811,49994,0,0,0,0,0.00,0.00,0.00,0.00
2016-09-10 08:10:00,0,49533,0,0.00,0,0,0,0,46245,50000,1129,50000,0,0,0,0,0.00,0.00,0.00,0.00
2016-09-10 08:20:00,0,48610,0,0.00,0,0,0,0,42927,50000,2159,49914,0,0,0,0,0.00,0.00,0.00,0.00
2016-09-10 08:30:00,0,44357,0,0.00,0,0,0,0,31720,50000,6397,46770,0,0,0,0,0.00,0.00,0.00,0.00
2016-09-10 08:40:00,0,49556,0,0.00,0,0,0,0,46397,50000,1082,50000,0,0,0,0,0.00,0.00,0.00,0.00
2016-09-10 08:50:00,0,50000,0,0.00,0,0,0,0,50000,50000,0,50000,0,0,0,0,0.00,0.00,0.00,0.00
2016-09-10 09:00:00,0,49544,0,0.00,0,0,0,0,47128,50000,950,50000,0,0,0,0,0.00,0.00,0.00,0.00
2016-09-10 09:10:00,0,49967,0,0.00,0,0,0,0,49752,50000,76,50000,0,0,0,0,0.00,0.00,0.00,0.00
2016-09-10 09:20:00,0,48537,0,0.00,0,0,0,0,44054,50000,2287,49978,0,0,0,0,0.00,0.00,0.00,0.00
2016-09-10 09:30:00,0,50000,0,0.00,0,0,0,0,50000,50000,0,50000,0,0,0,0,0.00,0.00,0.00,0.00
2016-09-10 09:40:00,0,50000,0,0.00,0,0,0,0,50000,50000,0,50000,0,0,0,0,0.00,0.00,0.00,0.00
2016-09-10 09:50:00,0,49735,0,0.00,0,0,0,0,48238,50000,565,50000,0,0,0,0,0.00,0.00,0.00,0.00
2016-09-10 10:00:00,0,49683,0,0.00,0,0,0,0,46834,50000,950,50000,0,0,0,0,0.00,0.00,0.00,0.00
2016-09-10 10:10:00,0,50000,0,0.00,0,0,0,0,50000,50000,0,50000,0,0,0,0,0.00,0.00,0.00,0.00
2016-09-10 10:20:00,0,50000,0,0.00,0,0,0,0,50000,50000,0,50000,0,0,0,0,0.00,0.00,0.00,0.00
2016-09-10 10:30:00,1,50000,0,0.00,0,2,1,1,50000,50000,0,50000,0,0,0,0,0.00,0.00,0.00,0.00
2016-09-10 10:40:00,2,50000,0,0.00,2,2,0,2,50000,50000,0,50000,0,0,0,0,0.00,0.00,0.00,0.00
2016-09-10 10:50:00,2,50000,0,0.00,2,2,0,2,50000,50000,0,50000,0,0,0,0,0.00,0.00,0.00,0.00
2016-09-10 11:00:00,2,50000,0,0.00,2,2,0,2,50000,50000,0,50000,0,0,0,0,0.00,0.00,0.00,0.00
2016-09-10 11:10:00,2,49876,0,0.00,2,2,0,2,48755,50000,374,50000,0,0,0,0,0.00,0.00,0.00,0.00
2016-09-10 11:20:00,2,50000,0,0.00,2,2,0,2,50000,50000,0,50000,0,0,0,0,0.00,0.00,0.00,0.00
2016-09-10 11:30:00,2,50000,0,0.00,2,2,0,2,50000,50000,0,50000,0,0,0,0,0.00,0.00,0.00,0.00
2016-09-10 11:40:00,2,50000,0,0.00,2,2,0,2,50000,50000,0,50000,0,0,0,0,0.00,0.00,0.00,0.00
2016-09-10 11:50:00,2,50000,0,0.00,2,2,0,2,50000,50000,0,50000,0,0,0,0,0.00,0.00,0.00,0.00
2016-09-10 12:00:00,2,49415,0,0.00,2,2,0,2,44581,50000,1616,50000,0,0,0,0,0.00,0.00,0.00,0.00
2016-09-10 12:10:00,2,50000,0,0.00,2,2,0,2,50000,50000,0,50000,0,0,0,0,0.00,0.00,0.00,0.00
2016-09-10 12:20:00,2,50000,0,0.00,2,2,0,2,50000,50000,0,50000,0,0,0,0,0.00,0.00,0.00,0.00
2016-09-10 12:30:00,2,50000,0,0.00,2,2,0,2,50000,50000,0,50000,0,0,0,0,0.00,0.00,0.00,0.00
2016-09-10 12:40:00,2,50000,0,0.00,0,2,1,2,50000,50000,0,50000,0,0,0,0,0.00,0.00,0.00,0.00
2016-09-10 12:50:00,2,50000,0,0.00,0,2,1,2,50000,50000,0,50000,0,0,0,0,0.00,0.00,0.00,0.00
2016-09-10 13:00:00,2,50000,0,0.00,2,2,0,2,50000,50000,0,50000,0,0,0,0,0.00,0.00,0.00,0.00
2016-09-10 13:10:00,1,50000,0,0.00,0,2,1,2,50000,50000,0,50000,0,0,0,0,0.00,0.00,0.00,0.00
2016-09-10 13:20:00,0,50000,0,0.00,0,0,0,0,50000,50000,0,50000,0,0,0,0,0.00,0.00,0.00,0.00
2016-09-10 13:30:00,1,50000,0,0.00,0,2,1,2,50000,50000,0,50000,0,0,0,0,0.00,0.00,0.00,0.00
2016-09-10 13:40:00,2,50000,0,0.00,2,2,0,2,50000,50000,0,50000,0,0,0,0,0.00,0.00,0.00,0.00
2016-09-10 13:50:00,2,50000,0,0.00,2,2,0,2,50000,50000,0,50000,0,0,0,0,0.00,0.00,0.00,0.00
2016-09-10 14:00:00,2,50000,0,0.00,2,2,0,2,50000,50000,0,50000,0,0,0,0,0.00,0.00,0.00,0.00
2016-09-10 14:10:00,2,49816,0,0.00,2,2,0,2,48159,50000,552,50000,0,0,0,0,0.00,0.00,0.00,0.00
2016-09-10 14:20:00,2,50000,0,0.00,2,2,0,2,50000,50000,0,50000,0,0,0,0,0.00,0.00,0.00,0.00
2016-09-10 14:30:00,2,50000,0,0.00,2,2,0,2,50000,50000,0,50000,0,0,0,0,0.00,0.00,0.00,0.00
2016-09-10 14:40:00,2,49819,0,0.00,2,2,0,2,48191,50000,543,50000,0,0,0,0,0.00,0.00,0.00,0.00
2016-09-10 14:50:00,2,50000,0,0.00,2,2,0,2,50000,50000,0,50000,0,0,0,0,0.00,0.00,0.00,0.00
2016-09-10 15:00:00,2,49746,0,0.00,2,2,0,2,47514,50000,744,50000,0,0,0,0,0.00,0.00,0.00,0.00
2016-09-10 15:10:00,2,50000,0,0.00,2,2,0,2,50000,50000,0,50000,0,0,0,0,0.00,0.00,0.00,0.00
2016-09-10 15:20:00,2,50000,0,0.00,2,2,0,2,50000,50000,0,50000,0,0,0,0,0.00,0.00,0.00,0.00
2016-09-10 15:30:00,2,49935,0,0.00,2,2,0,2,49353,50000,194,50000,0,0,0,0,0.00,0.00,0.00,0.00
2016-09-10 15:40:00,2,50000,0,0.00,2,2,0,2,50000,50000,0,50000,0,0,0,0,0.00,0.00,0.00,0.00
2016-09-10 15:50:00,2,49814,0,0.00,2,2,0,2,48536,50000,433,50000,0,0,0,0,0.00,0.00,0.00,0.00
2016-09-10 16:00:00,2,49816,0,0.00,2,2,0,2,48158,50000,553,50000,0,0,0,0,0.00,0.00,0.00,0.00
2016-09-10 16:10:00,2,50000,0,0.00,2,2,0,2,50000,50000,0,50000,0,0,0,0,0.00,0.00,0.00,0.00
2016-09-10 16:20:00,2,50000,0,0.00,2,2,0,2,50000,50000,0,50000,0,0,0,0,0.00,0.00,0.00,0.00
2016-09-10 16:30:00,2,50000,0,0.00,2,2,0,2,50000,50000,0,50000,0,0,0,0,0.00,0.00,0.00,0.00
2016-09-10 16:40:00,2,49824,0,0.00,2,2,0,2,48243,50000,527,50000,0,0,0,0,0.00,0.00,0.00,0.00
2016-09-10 16:50:00,2,49500,0,0.00,2,2,0,2,46610,50000,1076,50000,0,0,0,0,0.00,0.00,0.00,0.00
2016-09-10 17:00:00,2,49974,0,0.00,2,2,0,2,49738,50000,79,50000,0,0,0,0,0.00,0.00,0.00,0.00
2016-09-10 17:10:00,2,50000,0,0.00,2,2,0,2,50000,50000,0,50000,0,0,0,0,0.00,0.00,0.00,0.00
2016-09-10 17:20:00,2,49945,0,0.00,2,2,0,2,49466,50000,160,50000,0,0,0,0,0.00,0.00,0.00,0.00
2016-09-10 17:30:00,2,49565,0,0.00,2,2,0,2,47053,50000,936,50000,0,0,0,0,0.00,0.00,0.00,0.00
2016-09-10 17:40:00,2,49918,0,0.00,2,2,0,2,49244,50000,225,50000,0,0,0,0,0.00,0.00,0.00,0.00
2016-09-10 17:50:00,2,50000,0,0.00,2,2,0,2,50000,50000,0,50000,0,0,0,0,0.00,0.00,0.00,0.00
2016-09-10 18:00:00,2,50000,0,0.00,2,2,0,2,50000,50000,0,50000,0,0,0,0,0.00,0.00,0.00,0.00
2016-09-10 18:10:00,2,49874,0,0.00,2,2,0,2,48737,50000,379,50000,0,0,0,0,0.00,0.00,0.00,0.00
2016-09-10 18:20:00,2,50000,0,0.00,2,2,0,2,50000,50000,0,50000,0,0,0,0,0.00,0.00,0.00,0.00
2016-09-10 18:30:00,2,50000,0,0.00,2,2,0,2,50000,50000,0,50000,0,0,0,0,0.00,0.00,0.00,0.00
2016-09-10 18:40:00,2,50000,0,0.00,2,2,0,2,50000,50000,0,50000,0,0,0,0,0.00,0.00,0.00,0.00
2016-09-10 18:50:00,2,49788,0,0.00,2,2,0,2,47879,50000,636,50000,0,0,0,0,0.00,0.00,0.00,0.00
2016-09-10 19:00:00,2,49636,0,0.00,2,2,0,2,48714,50000,501,49990,0,0,0,0,0.00,0.00,0.00,0.00
2016-09-10 19:10:00,2,49912,0,0.00,2,2,0,2,49248,50000,225,50000,0,0,0,0,0.00,0.00,0.00,0.00
2016-09-10 19:20:00,2,49777,0,0.00,2,2,0,2,48940,50000,383,50000,0,0,0,0,0.00,0.00,0.00,0.00
2016-09-10 19:30:00,2,47275,0,0.00,2,2,0,2,38087,50000,3817,49295,0,0,0,0,0.00,0.00,0.00,0.00
2016-09-10 19:40:00,2,50000,0,0.00,2,2,0,2,50000,50000,0,50000,0,0,0,0,0.00,0.00,0.00,0.00
2016-09-10 19:50:00,2,50000,0,0.00,2,2,0,2,50000,50000,0,50000,0,0,0,0,0.00,0.00,0.00,0.00
2016-09-10 20:00:00,2,50000,0,0.00,2,2,0,2,50000,50000,0,50000,0,0,0,0,0.00,0.00,0.00,0.00
2016-09-10 20:10:00,2,50000,0,0.00,2,2,0,2,50000,50000,0,50000,0,0,0,0,0.00,0.00,0.00,0.00
2016-09-10 20:20:00,2,49906,0,0.00,2,2,0,2,49055,50000,284,50000,0,0,0,0,0.00,0.00,0.00,0.00
2016-09-10 20:30:00,2,50000,0,0.00,2,2,0,2,50000,50000,0,50000,0,0,0,0,0.00,0.00,0.00,0.00
2016-09-10 20:40:00,2,49263,0,0.00,2,2,0,2,44017,50000,1797,50000,0,0,0,0,0.00,0.00,0.00,0.00
2016-09-10 20:50:00,2,49818,0,0.00,2,2,0,2,48872,50000,376,50000,0,0,0,0,0.00,0.00,0.00,0.00
2016-09-10 21:00:00,2,49532,0,0.00,2,2,0,2,47371,50000,941,50000,0,0,0,0,0.00,0.00,0.00,0.00
2016-09-10 21:10:00,2,50000,0,0.00,2,2,0,2,50000,50000,0,50000,0,0,0,0,0.00,0.00,0.00,0.00
2016-09-10 21:20:00,2,49047,0,0.00,2,2,0,2,43655,50000,2033,50000,0,0,0,0,0.00,0.00,0.00,0.00
2016-09-10 21:30:00,2,50000,0,0.00,2,2,0,2,50000,50000,0,50000,0,0,0,0,0.00,0.00,0.00,0.00
2016-09-10 21:40:00,2,50000,0,0.00,2,2,0,2,50000,50000,0,50000,0,0,0,0,0.00,0.00,0.00,0.00
2016-09-10 21:50:00,2,49845,0,0.00,2,2,0,2,48876,50000,347,50000,0,0,0,0,0.00,0.00,0.00,0.00
2016-09-10 22:00:00,2,49361,0,0.00,2,2,0,2,47793,50000,852,50000,0,0,0,0,0.00,0.00,0.00,0.00
2016-09-10 22:10:00,2,49092,0,0.00,2,2,0,2,46357,50000,1394,50000,0,0,0,0,0.00,0.00,0.00,0.00
2016-09-10 22:20:00,2,40990,0,0.00,2,2,0,2,33212,50000,4385,40911,0,0,0,0,0.00,0.00,0.00,0.00
2016-09-10 22:30:00,2,43541,0,0.00,2,2,0,2,38306,50000,3662,43044,0,0,0,0,0.00,0.00,0.00,0.00
2016-09-10 22:40:00,2,43940,0,0.00,2,2,0,2,37192,50000,4700,43886,0,0,0,0,0.00,0.00,0.00,0.00
2016-09-10 22:50:00,2,49709,0,0.00,0,2,1,2,47092,50000,872,50000,0,0,0,0,0.00,0.00,0.00,0.00
2016-09-10 23:00:00,2,48809,0,0.00,2,2,0,2,44800,50000,1895,50000,0,0,0,0,0.00,0.00,0.00,0.00
2016-09-10 23:10:00,2,45291,0,0.00,2,2,0,2,33709,50000,4748,46422,0,0,0,0,0.00,0.00,0.00,0.00
2016-09-10 23:20:00,2,44278,0,0.00,2,2,0,2,29870,50000,6423,46776,0,0,0,0,0.00,0.00,0.00,0.00
2016-09-10 23:30:00,2,43556,0,0.00,2,2,0,2,34536,50000,5227,44842,0,0,0,0,0.00,0.00,0.00,0.00
2016-09-10 23:40:00,2,41723,0,0.00,2,2,0,2,27689,50000,6409,41008,0,0,0,0,0.00,0.00,0.00,0.00
2016-09-10 23:50:00,2,40495,0,0.00,2,2,0,2,31190,50000,7499,38962,0,0,0,0,0.00,0.00,0.00,0.00
